Starlink 37145

operational
NORAD ID: 68549 Int'l Des: 2026-070 Owner: SPXS Country: US Constellation: starlink
LEOCIRCULAR

Starlink 37145について

説明を読み込み中...

リアルタイム位置

3D地球を読み込み中...

次回通過

高度履歴

Altitude vs Time

uPlot chart will show altitude changes over time

軌道要素

1 68549C 26070G 26093.89909722 -.00056196 00000+0 -69152-4 0 933
2 68549 53.1620 259.6031 0008001 283.4568 284.8051 16.07139788 11
Epoch: Apr 3, 2026 • Age: 32 hours

現在のステータス

高度 257.3 km
速度 7.75 km/s
衛星直下点 8.12°N, 120.62°E
打ち上げ日 Apr 2, 2026
運用期間 1 days
タイプ internet

技術仕様

分類 Payload
質量 575.00 kg
乾燥質量 530.00 kg
総質量 575.00 kg
長さ 0.30 m
直径 4.10 m
スパン 29.00 m
形状 Box + pan
製造者 SPXS
バスタイプ Starlink V2MO
フェーズステータス In Orbit
所有者/国 SPXS/US

大規模コンステレーション

Loading constellations...